Wind_Speed
6 7 7 8 7 6 5 4 4 4 4 4 4 4 4 4 4 3 3 4 4 3 3 2 1 1 3 3 3 4 5 6 8 11 14 14 16 18 21 22 24 25 26 28
4 5 5 6 6 6 5 4 3 3 3 4 4 4 5 5 5 5 5 5 5 5 4 3 3 3 3 3 2 3 5 6 8 10 12 14 16 16 18 20 21 23 24 26
3 3 4 4 4 5 5 5 4 4 4 4 5 4 4 5 5 6 6 5 4 4 5 4 4 4 5 5 5 5 6 7 8 9 11 12 14 15 17 19 20 22 24 26
1 2 3 3 4 4 5 5 5 4 4 5 5 5 5 5 5 5 6 6 5 5 4 5 5 6 6 7 7 8 8 9 10 11 12 13 15 17 18 19 21 23 26 28
1 2 2 3 4 4 5 5 5 5 5 5 5 5 6 5 5 6 6 7 7 6 6 6 7 8 8 9 9 10 10 10 11 12 14 15 17 19 21 23 24 26 29 30
4 4 5 5 5 5 4 5 5 6 6 7 6 6 6 6 7 7 8 8 8 9 9 10 10 11 11 11 11 12 12 13 14 16 17 18 19 21 23 25 27 29 30 32
6 6 6 6 5 5 5 5 5 6 7 7 7 7 7 7 8 9 10 10 11 11 12 13 13 13 14 14 14 14 15 16 17 19 20 22 24 25 26 28 29 31 32 34
7 7 7 8 8 7 7 7 7 7 8 8 9 9 9 9 10 10 11 12 13 13 14 14 15 15 15 16 17 17 18 19 21 23 24 25 27 28 29 30 31 33 34 35
10 9 9 9 10 9 10 10 10 10 10 11 11 11 11 11 12 13 14 14 15 15 16 16 17 18 18 19 20 21 22 23 24 25 27 28 29 30 31 32 34 35 37 37
13 13 13 12 12 12 12 13 13 13 13 13 13 12 12 13 13 14 15 16 18 19 19 20 20 21 22 22 23 25 26 27 28 29 30 31 31 32 33 34 36 37 38 39
15 16 16 15 16 16 16 16 15 15 16 16 16 15 15 15 16 17 18 19 20 21 22 23 24 24 25 26 26 27 28 29 31 32 32 33 34 34 35 37 38 38 39 40
16 17 17 18 18 18 19 19 19 18 18 18 18 18 19 19 20 21 22 22 23 23 24 25 26 26 27 27 28 29 30 31 33 33 34 35 36 37 38 38 39 39 40 40
19 19 19 20 20 21 20 20 21 20 20 20 20 21 21 22 23 24 24 25 26 26 26 27 28 29 29 29 30 31 32 32 33 34 35 37 38 39 39 40 41 41 41 41
22 21 21 21 22 23 23 22 22 22 22 23 23 24 24 25 25 26 27 27 28 29 29 29 30 30 31 32 33 33 34 34 35 36 37 38 39 40 41 41 41 42 42 43
25 24 23 22 22 23 23 23 23 24 24 25 25 26 27 27 28 29 30 30 31 31 31 31 31 32 33 34 35 36 36 37 37 38 39 40 41 41 42 42 42 42 43 44
28 27 25 25 24 25 24 24 25 26 27 27 28 29 29 30 31 32 33 33 33 33 33 33 33 34 35 36 37 37 38 39 39 40 41 41 42 42 42 42 43 43 44 44
29 29 28 28 27 27 27 27 27 28 28 29 29 30 31 32 33 34 34 35 35 35 35 35 36 36 37 38 38 39 40 40 41 42 42 43 43 43 43 43 44 44 45 45
30 30 30 30 29 29 29 29 29 30 30 31 31 32 33 34 34 35 35 36 36 37 37 38 38 38 39 39 40 41 41 42 42 43 44 44 44 44 44 44 44 45 45 45
32 31 31 31 30 30 30 30 31 31 32 33 33 34 35 35 36 37 37 37 38 38 39 40 40 41 41 42 42 43 43 43 43 44 44 45 45 45 45 45 45 45 45 44
32 32 32 32 31 31 31 31 31 32 33 34 34 35 35 36 37 38 38 39 39 40 40 41 41 42 42 43 44 44 44 44 44 45 45 46 46 45 45 45 44 44 44 43
32 32 32 32 32 32 32 33 33 34 34 34 35 36 36 37 38 39 39 40 40 41 41 42 43 43 44 44 44 45 45 45 45 45 46 46 46 45 45 44 44 43 43 42
33 33 33 33 33 33 33 34 34 35 36 36 36 37 38 39 39 40 40 41 42 42 43 43 44 44 45 45 45 45 45 45 45 45 45 45 45 44 44 44 43 43 42 42
34 33 33 33 33 33 34 34 35 36 37 38 38 39 39 40 40 41 41 42 43 44 44 44 44 44 44 44 44 44 44 44 44 45 45 45 44 44 43 43 42 42 41 41
34 33 33 34 34 34 34 35 36 37 37 38 39 39 40 40 40 41 42 43 44 44 44 44 44 44 43 43 43 43 43 43 43 44 44 43 43 42 42 41 41 41 40 40
34 34 34 35 35 35 35 36 37 38 38 38 39 40 40 40 41 41 42 42 42 43 43 43 42 42 42 42 42 42 42 42 42 42 42 42 41 41 41 41 40 40 39 38
35 34 34 35 35 35 35 36 37 37 38 38 38 39 40 41 41 41 41 42 42 42 42 41 41 41 41 41 41 41 41 41 41 41 40 40 40 39 40 40 39 38 37 36
35 34 34 35 35 36 36 37 37 38 38 39 39 39 40 40 41 41 41 41 41 41 41 41 41 40 40 40 40 40 40 40 40 40 39 39 39 39 38 38 37 36 36 35
Wind_Direction
74 68 64 59 59 58 58 56 60 58 52 43 40 35 34 37 36 31 31 30 41 54 64 61 50 323 323 312 285 263 254 251 244 243 245 252 257 259 259 258 260 261 261 263
65 50 53 55 50 45 42 39 43 36 23 15 22 20 22 19 23 33 36 34 32 27 27 25 11 355 345 337 307 282 267 262 257 257 259 261 265 267 267 263 263 263 265 267
53 32 35 44 37 31 25 18 16 14 6 352 346 351 356 359 5 12 14 9 9 12 14 10 8 359 350 342 330 311 299 290 284 279 275 273 274 276 276 270 268 269 270 272
49 21 9 17 11 6 5 6 1 355 351 342 329 329 332 336 341 345 345 347 346 346 351 351 344 341 337 334 330 319 307 299 294 292 291 287 283 283 281 277 276 276 277 278
313 325 340 340 340 341 345 352 354 351 343 335 324 317 318 317 322 326 327 329 330 326 324 323 322 320 321 321 318 313 308 302 299 298 298 294 290 287 284 282 281 281 282 283
279 282 298 304 310 321 327 337 342 345 344 343 334 326 320 312 312 311 312 314 314 312 312 309 308 309 310 310 308 304 303 301 300 299 299 298 295 292 289 287 287 287 287 287
284 282 282 281 286 292 303 315 323 329 330 330 331 326 320 318 316 310 308 307 306 303 303 304 305 305 305 304 303 302 301 300 298 298 298 297 298 297 294 292 291 291 290 290
285 281 277 271 273 275 281 288 297 307 312 315 315 314 313 311 308 309 307 306 307 305 302 301 302 303 303 301 301 302 302 302 301 300 301 300 299 298 297 295 293 292 293 293
280 276 275 272 272 271 276 283 288 293 299 301 303 304 302 302 302 303 303 303 304 304 302 300 299 300 301 301 301 302 303 304 304 304 302 302 301 300 299 298 296 296 295 294
274 270 269 268 268 272 276 280 283 286 290 293 293 296 299 300 301 303 303 301 301 301 299 297 297 298 298 299 299 300 302 303 304 305 305 304 302 301 300 299 298 297 297 296
272 267 265 266 269 272 274 278 282 284 287 289 288 291 293 297 299 301 302 301 301 300 297 295 294 294 295 297 298 299 300 302 303 304 305 305 304 303 302 301 300 299 299 299
276 270 266 265 268 271 274 275 276 279 283 287 289 290 291 294 297 298 299 300 300 299 299 296 294 293 293 295 296 298 299 301 302 303 304 305 305 305 304 303 302 301 301 300
280 274 270 268 269 272 273 274 276 277 279 283 286 288 290 293 295 297 298 298 298 299 299 297 295 293 293 294 296 298 300 301 303 304 304 305 305 305 305 304 304 303 302 302
277 275 274 272 271 272 275 274 274 275 277 279 281 285 288 290 293 294 296 297 298 299 299 298 297 294 294 295 296 297 298 300 301 302 304 305 305 305 305 305 304 303 303 302
274 273 273 273 273 273 275 275 273 273 275 278 281 284 287 288 290 292 294 295 296 297 297 297 296 295 294 294 295 296 297 298 300 301 303 304 305 306 305 305 304 303 303 302
273 272 271 272 274 276 277 276 275 275 276 278 281 283 285 288 289 290 291 293 293 293 294 295 295 295 295 295 295 295 296 297 299 300 302 303 304 304 304 304 303 303 303 303
274 273 271 273 274 275 276 276 275 276 277 279 281 284 286 288 290 291 291 291 292 292 293 294 294 294 295 295 295 295 296 296 298 299 300 302 303 303 303 303 303 304 304 304
274 273 272 273 274 275 274 275 276 278 279 281 283 285 286 288 290 292 292 292 292 291 292 292 293 293 295 296 296 296 296 296 297 299 300 301 302 303 303 303 304 305 305 305
271 273 273 273 273 274 274 274 276 278 280 282 284 285 287 288 290 291 292 292 293 292 292 292 292 292 294 295 296 295 296 296 297 298 300 301 302 302 303 303 304 305 305 305
271 271 272 272 272 273 275 276 277 279 281 283 285 286 287 289 290 291 292 292 292 292 292 293 293 292 293 293 294 295 295 296 297 298 300 301 302 302 302 303 304 305 305 305
271 271 271 271 272 273 275 277 278 280 282 284 285 287 288 288 289 290 291 292 292 293 293 293 294 293 292 293 293 294 295 295 296 298 300 301 302 302 303 303 304 305 305 305
270 270 270 271 272 274 276 277 279 280 281 283 285 286 288 289 289 290 291 292 292 292 293 293 293 293 292 291 292 293 294 295 296 297 298 300 301 301 302 303 303 304 305 305
269 270 270 271 272 274 277 279 280 282 283 284 285 287 288 289 290 290 291 291 292 292 293 293 293 292 292 291 292 292 293 294 295 296 297 298 299 300 301 302 303 303 304 305
268 268 270 271 273 275 277 280 282 283 284 285 286 287 288 290 291 292 292 292 292 293 293 293 293 292 291 291 292 292 293 293 294 295 296 298 299 300 300 301 302 303 304 304
268 268 269 271 273 275 278 281 283 285 286 287 288 288 289 291 292 294 294 293 293 293 293 293 293 293 292 292 293 293 293 293 294 295 296 298 299 299 300 301 302 303 304 304
266 268 270 272 274 276 279 281 284 285 286 288 289 290 290 291 293 295 294 293 293 294 294 294 293 293 293 293 293 293 293 294 294 295 296 297 298 299 300 300 301 302 302 303
266 268 271 273 275 277 279 281 283 285 287 289 290 292 293 293 294 295 295 295 294 295 295 294 294 294 293 293 293 292 293 294 295 296 296 297 298 299 300 301 301 302 302 302
Height
5661 5660 5660 5659 5658 5657 5656 5655 5655 5655 5653 5653 5651 5650 5649 5648 5646 5645 5644 5642 5641 5640 5639 5638 5637 5637 5635 5634 5633 5632 5632 5633 5633 5634 5635 5636 5637 5636 5636 5637 5638 5639 5640 5641
5663 5662 5661 5660 5659 5658 5657 5656 5655 5655 5654 5653 5652 5651 5650 5649 5648 5646 5645 5644 5642 5641 5640 5639 5638 5637 5636 5634 5632 5632 5632 5632 5632 5632 5632 5633 5633 5632 5631 5632 5632 5632 5633 5633
5664 5663 5662 5662 5661 5659 5658 5657 5656 5655 5655 5653 5652 5651 5650 5649 5648 5647 5646 5645 5643 5642 5641 5640 5638 5637 5636 5634 5633 5632 5631 5631 5630 5630 5629 5629 5629 5628 5627 5627 5626 5626 5626 5625
5664 5664 5663 5664 5661 5660 5659 5657 5656 5655 5654 5653 5652 5651 5650 5649 5648 5647 5646 5645 5644 5642 5641 5640 5638 5637 5636 5634 5633 5631 5630 5629 5628 5627 5626 5626 5624 5623 5622 5621 5620 5620 5618 5617
5664 5663 5663 5663 5661 5659 5658 5658 5656 5655 5654 5653 5651 5651 5650 5649 5648 5647 5646 5645 5643 5642 5641 5640 5638 5637 5635 5633 5632 5630 5629 5627 5626 5624 5623 5622 5620 5618 5617 5615 5614 5612 5611 5608
5663 5662 5662 5663 5660 5658 5659 5657 5656 5655 5653 5652 5651 5650 5650 5648 5647 5646 5645 5644 5643 5641 5640 5639 5637 5635 5633 5632 5630 5628 5626 5624 5623 5621 5619 5617 5615 5613 5610 5608 5606 5603 5601 5599
5661 5660 5661 5660 5659 5658 5659 5658 5656 5654 5652 5651 5650 5649 5648 5647 5645 5644 5643 5642 5640 5639 5638 5636 5634 5633 5631 5629 5627 5625 5623 5621 5619 5616 5614 5611 5609 5606 5603 5600 5597 5595 5592 5589
5660 5659 5661 5658 5657 5657 5656 5655 5653 5652 5651 5650 5648 5647 5646 5644 5643 5642 5640 5639 5637 5636 5634 5633 5631 5629 5627 5625 5623 5621 5619 5617 5614 5611 5608 5605 5602 5598 5595 5591 5588 5585 5582 5579
5658 5659 5656 5655 5654 5653 5653 5652 5651 5650 5649 5647 5646 5645 5643 5642 5640 5639 5637 5636 5634 5632 5630 5629 5627 5625 5623 5621 5618 5616 5614 5611 5608 5605 5602 5598 5594 5590 5586 5582 5579 5575 5572 5568
5653 5653 5652 5651 5650 5650 5649 5648 5647 5646 5645 5644 5643 5642 5640 5639 5637 5635 5634 5632 5630 5628 5626 5624 5622 5620 5618 5615 5613 5610 5607 5604 5601 5598 5594 5590 5586 5582 5577 5573 5569 5565 5561 5557
5648 5648 5647 5646 5646 5645 5644 5643 5642 5641 5640 5639 5638 5638 5636 5635 5633 5631 5629 5627 5625 5623 5620 5618 5616 5614 5611 5609 5606 5603 5600 5597 5593 5590 5585 5581 5577 5572 5568 5563 5559 5554 5550 5545
5643 5642 5641 5641 5640 5639 5639 5638 5637 5636 5635 5634 5633 5632 5631 5629 5628 5626 5624 5621 5619 5617 5614 5611 5609 5606 5604 5601 5599 5596 5592 5589 5585 5581 5577 5572 5567 5563 5558 5553 5548 5543 5538 5534
5636 5635 5634 5634 5633 5632 5632 5632 5631 5630 5629 5628 5627 5626 5624 5623 5621 5619 5617 5615 5612 5609 5607 5604 5601 5598 5596 5593 5590 5587 5584 5580 5576 5572 5567 5563 5558 5553 5548 5542 5537 5532 5527 5522
5629 5628 5627 5626 5626 5625 5625 5624 5624 5623 5622 5621 5620 5619 5617 5616 5614 5612 5609 5607 5604 5601 5598 5596 5593 5590 5587 5584 5581 5578 5574 5571 5567 5562 5557 5553 5548 5542 5537 5532 5526 5521 5516 5511
5621 5620 5620 5619 5618 5617 5617 5616 5616 5615 5614 5613 5612 5611 5609 5608 5606 5603 5601 5598 5595 5593 5590 5587 5584 5581 5578 5575 5571 5568 5564 5561 5556 5552 5547 5542 5537 5532 5526 5521 5515 5510 5505 5500
5613 5612 5611 5611 5610 5609 5608 5608 5607 5607 5606 5605 5603 5602 5600 5598 5596 5594 5591 5589 5586 5583 5580 5577 5574 5571 5567 5564 5561 5557 5553 5550 5546 5541 5536 5531 5526 5521 5515 5510 5504 5499 5493 5488
5603 5603 5602 5602 5601 5600 5599 5598 5598 5597 5596 5595 5594 5592 5590 5589 5586 5584 5581 5578 5576 5573 5570 5567 5563 5560 5557 5553 5550 5546 5542 5538 5534 5530 5525 5520 5515 5509 5504 5498 5493 5487 5482 5476
5593 5593 5593 5592 5591 5590 5590 5589 5588 5587 5587 5585 5584 5582 5580 5578 5576 5573 5571 5568 5565 5562 5559 5556 5552 5549 5545 5542 5538 5534 5530 5526 5522 5518 5513 5508 5503 5498 5492 5487 5481 5476 5470 5465
5582 5583 5582 5582 5581 5580 5579 5579 5578 5577 5576 5574 5573 5571 5569 5567 5565 5562 5559 5556 5553 5550 5547 5544 5540 5537 5534 5530 5526 5522 5518 5514 5510 5505 5501 5496 5491 5485 5480 5475 5469 5464 5458 5453
5571 5571 5571 5571 5570 5570 5569 5568 5567 5566 5565 5563 5562 5560 5558 5555 5553 5550 5548 5544 5541 5538 5535 5531 5528 5525 5521 5517 5513 5510 5506 5502 5498 5493 5488 5484 5479 5473 5468 5463 5457 5452 5447 5441
5560 5560 5560 5560 5560 5559 5558 5557 5556 5555 5553 5552 5550 5548 5546 5543 5541 5538 5535 5532 5529 5525 5522 5518 5515 5511 5508 5504 5500 5497 5493 5489 5485 5481 5476 5471 5466 5461 5456 5451 5446 5440 5435 5430
5549 5549 5549 5549 5549 5548 5547 5546 5545 5543 5541 5540 5538 5536 5533 5531 5528 5525 5522 5519 5515 5512 5508 5505 5501 5498 5494 5490 5487 5484 5480 5476 5472 5468 5463 5458 5454 5449 5444 5439 5434 5429 5424 5419
5537 5537 5537 5537 5537 5536 5535 5534 5533 5531 5529 5527 5525 5523 5520 5518 5514 5512 5509 5505 5501 5498 5494 5491 5487 5484 5480 5477 5474 5470 5466 5463 5459 5455 5450 5446 5441 5437 5432 5427 5423 5418 5413 5408
5525 5525 5525 5525 5525 5524 5523 5522 5520 5519 5517 5515 5512 5510 5507 5504 5501 5497 5494 5491 5487 5484 5480 5477 5473 5470 5467 5463 5460 5457 5453 5450 5446 5442 5438 5433 5429 5425 5420 5416 5411 5406 5402 5397
5513 5513 5513 5513 5513 5512 5511 5510 5508 5507 5505 5502 5500 5497 5494 5491 5488 5484 5480 5477 5473 5470 5467 5463 5460 5456 5453 5450 5447 5444 5441 5437 5433 5429 5425 5421 5417 5413 5409 5404 5400 5395 5391 5386
5500 5501 5501 5501 5501 5500 5499 5498 5496 5494 5492 5490 5487 5484 5481 5478 5475 5471 5467 5464 5460 5457 5454 5450 5447 5443 5440 5437 5434 5431 5428 5424 5421 5417 5413 5409 5405 5401 5397 5393 5389 5384 5380 5376
5488 5488 5488 5488 5488 5487 5486 5485 5484 5482 5480 5478 5475 5472 5469 5466 5462 5458 5455 5451 5448 5444 5441 5437 5434 5431 5428 5425 5422 5419 5415 5412 5409 5405 5401 5398 5394 5390 5386 5382 5377 5373 5369 5365